DEVICE NETWORK
Gateway Status
13 ESP · realtime ~1s · history 60s
Weather
WS-MOD-01
ONLINE
Actuator
ACT-MOD-01
OFFLINE
Mainboard L3
MB-L3-01
ONLINE
Mainboard L5
MB-L5-01
ONLINE
Remote AC
AC-REMOTE-01
ONLINE
PZEM L3-01
PWR-L3-01
OFFLINE
PZEM L3-02
PWR-L3-02
OFFLINE
PZEM L3-03
PWR-L3-03
OFFLINE
PZEM L3-04
PWR-L3-04
OFFLINE
PZEM L5-01
PWR-L5-01
ONLINE
PZEM L5-02
PWR-L5-02
ONLINE
PZEM L5-03
PWR-L5-03
OFFLINE
PZEM L5-04
PWR-L5-04
OFFLINE
REPORT FILTER
DATABASE HISTORY
Periode & Sensor
REPORT RESULT
Data Sensor
04/08/2026 — 02/09/2026
EXPORT CSV
| NO | TANGGAL | WAKTU | DEVICE | CHANNEL | SENSOR | VALUE | UNIT |
|---|---|---|---|---|---|---|---|
| 13401 | 02/09/2026 | 14:53:47 | MB-L5-01Mainboard Lantai 5 | L5-SHT-01-RH | SHT20 1 Humidity | 48.10 | %RH |
| 13402 | 02/09/2026 | 14:53:47 | MB-L5-01Mainboard Lantai 5 | L5-HFT-01 | Heat Flow Temperature 1 | 30.30 | °C |
| 13403 | 02/09/2026 | 14:53:47 | MB-L5-01Mainboard Lantai 5 | L5-LUX-01 | Illuminance / LUX 1 | 155.30 | lux |
| 13404 | 02/09/2026 | 14:53:47 | MB-L5-01Mainboard Lantai 5 | L5-LUX-06 | Illuminance / LUX 6 | 165.90 | lux |
| 13405 | 02/09/2026 | 14:53:47 | MB-L5-01Mainboard Lantai 5 | L5-ST-02 | Surface Temperature 2 | 30.40 | °C |
| 13406 | 02/09/2026 | 14:53:47 | MB-L5-01Mainboard Lantai 5 | L5-LUX-02 | Illuminance / LUX 2 | 230.90 | lux |
| 13407 | 02/09/2026 | 14:53:47 | MB-L5-01Mainboard Lantai 5 | L5-ST-01 | Surface Temperature 1 | 30.10 | °C |
| 13408 | 02/09/2026 | 14:53:47 | MB-L5-01Mainboard Lantai 5 | L5-RAD-02 | Radiation 2 | 2.00 | W/m² |
| 13409 | 02/09/2026 | 14:53:47 | MB-L5-01Mainboard Lantai 5 | L5-AI-06 | Analog Input 6 | 3.05 | V |
| 13410 | 02/09/2026 | 14:53:47 | MB-L5-01Mainboard Lantai 5 | L5-SHT-02-RH | SHT20 2 Humidity | 47.90 | %RH |
| 13411 | 02/09/2026 | 14:53:47 | MB-L5-01Mainboard Lantai 5 | L5-LUX-05 | Illuminance / LUX 5 | 245.80 | lux |
| 13412 | 02/09/2026 | 14:53:47 | MB-L5-01Mainboard Lantai 5 | L5-LUX-04 | Illuminance / LUX 4 | 170.60 | lux |
| 13413 | 02/09/2026 | 14:53:45 | MB-L5-01Mainboard Lantai 5 | L5-AI-01 | Analog Input 1 | 3.05 | V |
| 13414 | 02/09/2026 | 14:53:45 | MB-L5-01Mainboard Lantai 5 | L5-BGT-03 | Black Globe Temperature 3 | 29.90 | °C |
| 13415 | 02/09/2026 | 14:53:45 | MB-L5-01Mainboard Lantai 5 | L5-LUX-03 | Illuminance / LUX 3 | 129.70 | lux |
| 13416 | 02/09/2026 | 14:53:45 | MB-L5-01Mainboard Lantai 5 | L5-BGT-02 | Black Globe Temperature 2 | 29.70 | °C |
| 13417 | 02/09/2026 | 14:53:45 | MB-L5-01Mainboard Lantai 5 | L5-BGT-01 | Black Globe Temperature 1 | 29.80 | °C |
| 13418 | 02/09/2026 | 14:53:45 | MB-L5-01Mainboard Lantai 5 | L5-HFT-02 | Heat Flow Temperature 2 | 30.10 | °C |
| 13419 | 02/09/2026 | 14:53:45 | MB-L5-01Mainboard Lantai 5 | L5-SHT-01-RH | SHT20 1 Humidity | 48.10 | %RH |
| 13420 | 02/09/2026 | 14:53:45 | MB-L5-01Mainboard Lantai 5 | L5-HFT-01 | Heat Flow Temperature 1 | 30.10 | °C |
| 13421 | 02/09/2026 | 14:53:45 | MB-L5-01Mainboard Lantai 5 | L5-LUX-01 | Illuminance / LUX 1 | 214.90 | lux |
| 13422 | 02/09/2026 | 14:53:45 | MB-L5-01Mainboard Lantai 5 | L5-LUX-06 | Illuminance / LUX 6 | 201.90 | lux |
| 13423 | 02/09/2026 | 14:53:45 | MB-L5-01Mainboard Lantai 5 | L5-ST-02 | Surface Temperature 2 | 30.30 | °C |
| 13424 | 02/09/2026 | 14:53:45 | MB-L5-01Mainboard Lantai 5 | L5-LUX-02 | Illuminance / LUX 2 | 246.20 | lux |
| 13425 | 02/09/2026 | 14:53:45 | MB-L5-01Mainboard Lantai 5 | L5-ST-01 | Surface Temperature 1 | 30.00 | °C |
| 13426 | 02/09/2026 | 14:53:45 | MB-L5-01Mainboard Lantai 5 | L5-RAD-02 | Radiation 2 | 2.00 | W/m² |
| 13427 | 02/09/2026 | 14:53:45 | MB-L5-01Mainboard Lantai 5 | L5-AI-06 | Analog Input 6 | 3.05 | V |
| 13428 | 02/09/2026 | 14:53:45 | MB-L5-01Mainboard Lantai 5 | L5-SHT-02-RH | SHT20 2 Humidity | 48.00 | %RH |
| 13429 | 02/09/2026 | 14:53:45 | MB-L5-01Mainboard Lantai 5 | L5-LUX-05 | Illuminance / LUX 5 | 345.20 | lux |
| 13430 | 02/09/2026 | 14:53:45 | MB-L5-01Mainboard Lantai 5 | L5-LUX-04 | Illuminance / LUX 4 | 170.60 | lux |
| 13431 | 02/09/2026 | 14:53:45 | MB-L5-01Mainboard Lantai 5 | L5-AI-05 | Analog Input 5 | 3.05 | V |
| 13432 | 02/09/2026 | 14:53:45 | MB-L5-01Mainboard Lantai 5 | L5-SHT-03-T | SHT20 3 Temperature | 32.20 | °C |
| 13433 | 02/09/2026 | 14:53:45 | MB-L5-01Mainboard Lantai 5 | L5-SHT-01-T | SHT20 1 Temperature | 32.30 | °C |
| 13434 | 02/09/2026 | 14:53:45 | MB-L5-01Mainboard Lantai 5 | L5-SHT-02-T | SHT20 2 Temperature | 32.20 | °C |
| 13435 | 02/09/2026 | 14:53:45 | MB-L5-01Mainboard Lantai 5 | L5-SHT-03-RH | SHT20 3 Humidity | 48.50 | %RH |
| 13436 | 02/09/2026 | 14:53:45 | MB-L5-01Mainboard Lantai 5 | L5-AI-04 | Analog Input 4 | 3.05 | V |
| 13437 | 02/09/2026 | 14:53:45 | MB-L5-01Mainboard Lantai 5 | L5-RAD-01 | Radiation 1 | 2.00 | W/m² |
| 13438 | 02/09/2026 | 14:53:45 | MB-L5-01Mainboard Lantai 5 | L5-AI-03 | Analog Input 3 | 3.05 | V |
| 13439 | 02/09/2026 | 14:53:45 | MB-L5-01Mainboard Lantai 5 | L5-AI-02 | Analog Input 2 | 3.05 | V |
| 13440 | 02/09/2026 | 14:53:43 | MB-L3-01Mainboard Lantai 3 | L3-LUX-04 | Illuminance / LUX 4 | 57.80 | lux |
| 13441 | 02/09/2026 | 14:53:43 | MB-L3-01Mainboard Lantai 3 | L3-SHT-02-RH | SHT20 2 Humidity | 48.20 | %RH |
| 13442 | 02/09/2026 | 14:53:43 | MB-L5-01Mainboard Lantai 5 | L5-LUX-03 | Illuminance / LUX 3 | 160.00 | lux |
| 13443 | 02/09/2026 | 14:53:43 | MB-L5-01Mainboard Lantai 5 | L5-BGT-02 | Black Globe Temperature 2 | 29.80 | °C |
| 13444 | 02/09/2026 | 14:53:43 | MB-L3-01Mainboard Lantai 3 | L3-BGT-01 | Black Globe Temperature 1 | 30.00 | °C |
| 13445 | 02/09/2026 | 14:53:43 | MB-L5-01Mainboard Lantai 5 | L5-BGT-01 | Black Globe Temperature 1 | 29.80 | °C |
| 13446 | 02/09/2026 | 14:53:43 | MB-L5-01Mainboard Lantai 5 | L5-HFT-02 | Heat Flow Temperature 2 | 30.00 | °C |
| 13447 | 02/09/2026 | 14:53:43 | MB-L3-01Mainboard Lantai 3 | L3-AI-04 | Analog Input 4 | 3.12 | V |
| 13448 | 02/09/2026 | 14:53:43 | MB-L3-01Mainboard Lantai 3 | L3-LUX-02 | Illuminance / LUX 2 | 40.30 | lux |
| 13449 | 02/09/2026 | 14:53:43 | MB-L5-01Mainboard Lantai 5 | L5-SHT-01-RH | SHT20 1 Humidity | 48.20 | %RH |
| 13450 | 02/09/2026 | 14:53:43 | MB-L3-01Mainboard Lantai 3 | L3-BGT-02 | Black Globe Temperature 2 | 30.00 | °C |
| 13451 | 02/09/2026 | 14:53:43 | MB-L5-01Mainboard Lantai 5 | L5-HFT-01 | Heat Flow Temperature 1 | 30.10 | °C |
| 13452 | 02/09/2026 | 14:53:43 | MB-L3-01Mainboard Lantai 3 | L3-SHT-03-RH | SHT20 3 Humidity | 48.80 | %RH |
| 13453 | 02/09/2026 | 14:53:43 | MB-L5-01Mainboard Lantai 5 | L5-LUX-01 | Illuminance / LUX 1 | 269.30 | lux |
| 13454 | 02/09/2026 | 14:53:43 | MB-L5-01Mainboard Lantai 5 | L5-LUX-06 | Illuminance / LUX 6 | 248.50 | lux |
| 13455 | 02/09/2026 | 14:53:43 | MB-L5-01Mainboard Lantai 5 | L5-ST-02 | Surface Temperature 2 | 30.30 | °C |
| 13456 | 02/09/2026 | 14:53:43 | MB-L3-01Mainboard Lantai 3 | L3-LUX-01 | Illuminance / LUX 1 | 17.80 | lux |
| 13457 | 02/09/2026 | 14:53:43 | MB-L3-01Mainboard Lantai 3 | L3-ST-01 | Surface Temperature 1 | 30.10 | °C |
| 13458 | 02/09/2026 | 14:53:43 | MB-L3-01Mainboard Lantai 3 | L3-RAD-02 | Radiation 2 | 2.00 | W/m² |
| 13459 | 02/09/2026 | 14:53:43 | MB-L5-01Mainboard Lantai 5 | L5-LUX-02 | Illuminance / LUX 2 | 256.80 | lux |
| 13460 | 02/09/2026 | 14:53:43 | MB-L3-01Mainboard Lantai 3 | L3-AI-05 | Analog Input 5 | 3.12 | V |
| 13461 | 02/09/2026 | 14:53:43 | MB-L5-01Mainboard Lantai 5 | L5-ST-01 | Surface Temperature 1 | 29.90 | °C |
| 13462 | 02/09/2026 | 14:53:43 | MB-L3-01Mainboard Lantai 3 | L3-SHT-03-T | SHT20 3 Temperature | 31.80 | °C |
| 13463 | 02/09/2026 | 14:53:43 | MB-L3-01Mainboard Lantai 3 | L3-LUX-03 | Illuminance / LUX 3 | 105.10 | lux |
| 13464 | 02/09/2026 | 14:53:43 | MB-L3-01Mainboard Lantai 3 | L3-SHT-02-T | SHT20 2 Temperature | 32.10 | °C |
| 13465 | 02/09/2026 | 14:53:43 | MB-L3-01Mainboard Lantai 3 | L3-BGT-03 | Black Globe Temperature 3 | 29.50 | °C |
| 13466 | 02/09/2026 | 14:53:43 | MB-L5-01Mainboard Lantai 5 | L5-RAD-02 | Radiation 2 | 2.00 | W/m² |
| 13467 | 02/09/2026 | 14:53:43 | MB-L3-01Mainboard Lantai 3 | L3-RAD-01 | Radiation 1 | 2.00 | W/m² |
| 13468 | 02/09/2026 | 14:53:43 | MB-L3-01Mainboard Lantai 3 | L3-ST-02 | Surface Temperature 2 | 30.40 | °C |
| 13469 | 02/09/2026 | 14:53:43 | MB-L5-01Mainboard Lantai 5 | L5-AI-06 | Analog Input 6 | 3.05 | V |
| 13470 | 02/09/2026 | 14:53:43 | MB-L5-01Mainboard Lantai 5 | L5-SHT-02-RH | SHT20 2 Humidity | 48.00 | %RH |
| 13471 | 02/09/2026 | 14:53:43 | MB-L5-01Mainboard Lantai 5 | L5-LUX-04 | Illuminance / LUX 4 | 271.40 | lux |
| 13472 | 02/09/2026 | 14:53:43 | MB-L3-01Mainboard Lantai 3 | L3-AI-06 | Analog Input 6 | 3.12 | V |
| 13473 | 02/09/2026 | 14:53:43 | MB-L5-01Mainboard Lantai 5 | L5-AI-05 | Analog Input 5 | 3.05 | V |
| 13474 | 02/09/2026 | 14:53:43 | MB-L5-01Mainboard Lantai 5 | L5-SHT-03-T | SHT20 3 Temperature | 32.20 | °C |
| 13475 | 02/09/2026 | 14:53:43 | MB-L5-01Mainboard Lantai 5 | L5-SHT-01-T | SHT20 1 Temperature | 32.30 | °C |
| 13476 | 02/09/2026 | 14:53:43 | MB-L3-01Mainboard Lantai 3 | L3-AI-01 | Analog Input 1 | 3.12 | V |
| 13477 | 02/09/2026 | 14:53:43 | MB-L5-01Mainboard Lantai 5 | L5-SHT-02-T | SHT20 2 Temperature | 32.20 | °C |
| 13478 | 02/09/2026 | 14:53:43 | MB-L5-01Mainboard Lantai 5 | L5-SHT-03-RH | SHT20 3 Humidity | 48.60 | %RH |
| 13479 | 02/09/2026 | 14:53:43 | MB-L5-01Mainboard Lantai 5 | L5-AI-04 | Analog Input 4 | 3.05 | V |
| 13480 | 02/09/2026 | 14:53:43 | MB-L3-01Mainboard Lantai 3 | L3-HFT-01 | Heat Flow Temperature 1 | 29.80 | °C |
| 13481 | 02/09/2026 | 14:53:43 | MB-L5-01Mainboard Lantai 5 | L5-RAD-01 | Radiation 1 | 2.00 | W/m² |
| 13482 | 02/09/2026 | 14:53:43 | MB-L5-01Mainboard Lantai 5 | L5-AI-03 | Analog Input 3 | 3.05 | V |
| 13483 | 02/09/2026 | 14:53:43 | MB-L5-01Mainboard Lantai 5 | L5-AI-02 | Analog Input 2 | 3.05 | V |
| 13484 | 02/09/2026 | 14:53:43 | MB-L3-01Mainboard Lantai 3 | L3-LUX-06 | Illuminance / LUX 6 | 30.50 | lux |
| 13485 | 02/09/2026 | 14:53:43 | MB-L3-01Mainboard Lantai 3 | L3-AI-02 | Analog Input 2 | 3.12 | V |
| 13486 | 02/09/2026 | 14:53:43 | MB-L5-01Mainboard Lantai 5 | L5-AI-01 | Analog Input 1 | 3.05 | V |
| 13487 | 02/09/2026 | 14:53:43 | MB-L3-01Mainboard Lantai 3 | L3-HFT-02 | Heat Flow Temperature 2 | 29.30 | °C |
| 13488 | 02/09/2026 | 14:53:43 | MB-L3-01Mainboard Lantai 3 | L3-SHT-01-T | SHT20 1 Temperature | 32.20 | °C |
| 13489 | 02/09/2026 | 14:53:43 | MB-L3-01Mainboard Lantai 3 | L3-SHT-01-RH | SHT20 1 Humidity | 48.10 | %RH |
| 13490 | 02/09/2026 | 14:53:43 | MB-L5-01Mainboard Lantai 5 | L5-BGT-03 | Black Globe Temperature 3 | 29.90 | °C |
| 13491 | 02/09/2026 | 14:53:43 | MB-L3-01Mainboard Lantai 3 | L3-AI-03 | Analog Input 3 | 3.12 | V |
| 13492 | 02/09/2026 | 14:53:41 | MB-L3-01Mainboard Lantai 3 | L3-BGT-02 | Black Globe Temperature 2 | 30.00 | °C |
| 13493 | 02/09/2026 | 14:53:41 | MB-L5-01Mainboard Lantai 5 | L5-HFT-01 | Heat Flow Temperature 1 | 30.10 | °C |
| 13494 | 02/09/2026 | 14:53:41 | MB-L3-01Mainboard Lantai 3 | L3-SHT-03-RH | SHT20 3 Humidity | 48.90 | %RH |
| 13495 | 02/09/2026 | 14:53:41 | MB-L5-01Mainboard Lantai 5 | L5-LUX-01 | Illuminance / LUX 1 | 268.10 | lux |
| 13496 | 02/09/2026 | 14:53:41 | MB-L5-01Mainboard Lantai 5 | L5-LUX-06 | Illuminance / LUX 6 | 234.30 | lux |
| 13497 | 02/09/2026 | 14:53:41 | MB-L5-01Mainboard Lantai 5 | L5-ST-02 | Surface Temperature 2 | 30.20 | °C |
| 13498 | 02/09/2026 | 14:53:41 | MB-L3-01Mainboard Lantai 3 | L3-LUX-01 | Illuminance / LUX 1 | 16.60 | lux |
| 13499 | 02/09/2026 | 14:53:41 | MB-L3-01Mainboard Lantai 3 | L3-ST-01 | Surface Temperature 1 | 30.00 | °C |
| 13500 | 02/09/2026 | 14:53:41 | MB-L3-01Mainboard Lantai 3 | L3-RAD-02 | Radiation 2 | 2.00 | W/m² |
Menampilkan maksimal 100 data per halaman